sat.trackr.live / text

‹ back to catalog

LEMUR-2 FIKRETDENGIZ

NORAD 67363 · 2026-004A

PAYLOAD ACTIVE UNKNOWN

§ Identity

Operator
Country
US
Launch date
2026-01-11
Launch site
AFWTR
Launch vehicle
Mass (kg)
RCS (m²)

Purposes: earth_obs

External: N2YO · Heavens-Above · Gunter

§ Orbital elements

Epoch: 2026-09-18T23:15:45.042048Z

Period
96.71 min
Inclination
97.8092°
Eccentricity
0.0008393
Mean motion
14.88914603 rev/d
Perigee alt
595.5 km
Apogee alt
607.2 km
Semi-major
6,979.5 km
B*
2.5136e-4
RAAN
259.1591°
Arg perigee
180.2204°
Mean anomaly
179.9011°
Rev number
3,723

§ Raw data

LEMUR-2 FIKRETDENGIZ1 67363U 26004A   26261.96927132  .00002306  00000+0  25136-3 0  99932 67363  97.8092 259.1591 0008393 180.2204 179.9011 14.88914603 37231

JSON: /api/v1/satellites/67363 · /tle

For live sub-satellite position, see the globe view (requires WebGL).

§ Visibility from observer

Set your observer location to see the next 7 days of passes ≥ 10°. The values pass through the URL so the page stays shareable.

No JS? Fill the form by hand. The geolocation button needs JavaScript.